GW3465 Weather Reports


time (UTC)temp
F
wind
direction
speed
knots
gust
knots
rain 1hr
in
rain 24hr
in
rain mn
in
humidity
%
barometer
mb
20260507201033 64 300 9.6 12.2 0.00 0.00 0.00 47 1015.3
20260507200529 65 254 4.3 8.7 0.00 0.00 0.00 48 1015.3
20260507200025 64 315 5.2 13.9 0.00 0.00 0.00 49 1015.5
20260507195522 64 238 6.1 11.3 0.00 0.00 0.00 49 1015.6
20260507195020 65 226 7.8 14.8 0.00 0.00 0.00 48 1015.6
20260507194516 64 265 7.8 12.2 0.00 0.00 0.00 48 1015.8
20260507194012 64 239 6.1 12.2 0.00 0.00 0.00 49 1015.9
20260507193509 64 298 5.2 8.7 0.00 0.00 0.00 48 1015.9
20260507193006 64 242 5.2 13.0 0.00 0.00 0.00 48 1015.9
20260507192502 63 332 4.3 9.6 0.00 0.00 0.00 51 1016.1
20260507191959 64 294 10.4 13.0 0.00 0.00 0.00 48 1016.0
20260507191454 63 270 9.6 13.0 0.00 0.00 0.00 50 1016.2
20260507190952 63 241 7.0 8.7 0.00 0.00 0.00 49 1016.2
20260507190449 64 260 10.4 13.0 0.00 0.00 0.00 47 1016.2
20260507185948 64 313 5.2 12.2 0.00 0.00 0.00 49 1016.0
20260507185445 63 299 6.1 12.2 0.00 0.00 0.00 50 1016.3
20260507184942 63 304 7.8 9.6 0.00 0.00 0.00 48 1016.3
20260507184440 64 246 8.7 15.6 0.00 0.00 0.00 48 1016.4
20260507183938 64 251 5.2 13.0 0.00 0.00 0.00 47 1016.4
20260507183434 65 296 11.3 16.5 0.00 0.00 0.00 46 1016.5
20260507182931 63 283 5.2 9.6 0.00 0.00 0.00 49 1016.5
20260507182427 63 267 3.5 7.0 0.00 0.00 0.00 50 1016.6
20260507181923 62 205 5.2 13.9 0.00 0.00 0.00 48 1016.5
20260507181419 62 325 6.1 7.8 0.00 0.00 0.00 49 1016.3
20260507180916 62 267 3.5 9.6 0.00 0.00 0.00 50 1016.5
20260507180413 62 309 12.2 13.9 0.00 0.00 0.00 47 1016.6
20260507175909 63 268 9.6 13.0 0.00 0.00 0.00 47 1016.9
20260507175406 64 252 6.1 11.3 0.00 0.00 0.00 47 1016.9
20260507174903 62 285 3.5 9.6 0.00 0.00 0.00 49 1016.9
20260507174401 62 304 7.8 11.3 0.00 0.00 0.00 47 1017.1
20260507173858 62 337 4.3 7.0 0.00 0.00 0.00 49 1017.2
20260507173355 63 273 6.1 7.8 0.00 0.00 0.00 47 1017.2
20260507172851 63 295 12.2 13.9 0.00 0.00 0.00 47 1017.3
20260507172348 63 251 6.1 11.3 0.00 0.00 0.00 48 1017.3
20260507171844 62 285 6.1 11.3 0.00 0.00 0.00 48 1017.5
20260507171341 61 252 7.0 13.0 0.00 0.00 0.00 49 1017.5
20260507170838 62 264 4.3 8.7 0.00 0.00 0.00 50 1017.6
20260507170334 62 247 7.0 8.7 0.00 0.00 0.00 48 1017.5
20260507165830 62 253 4.3 7.0 0.00 0.00 0.00 46 1017.5
20260507165326 62 256 7.8 13.0 0.00 0.00 0.00 46 1017.9
20260507164822 62 342 7.0 11.3 0.00 0.00 0.00 46 1018.0
20260507164320 62 269 7.0 14.8 0.00 0.00 0.00 47 1018.2
20260507163817 61 259 5.2 12.2 0.00 0.00 0.00 48 1018.0
20260507163315 61 285 8.7 9.6 0.00 0.00 0.00 49 1018.0
20260507162810 62 227 4.3 7.0 0.00 0.00 0.00 47 1018.1
20260507162307 60 301 4.3 9.6 0.00 0.00 0.00 50 1017.9
20260507161804 60 297 4.3 8.7 0.00 0.00 0.00 49 1018.1
20260507161300 60 262 9.6 13.0 0.00 0.00 0.00 49 1018.2
20260507160756 60 290 6.1 11.3 0.00 0.00 0.00 49 1018.3
20260507160252 60 272 4.3 13.9 0.00 0.00 0.00 49 1018.1
20260507155748 60 347 7.0 9.6 0.00 0.00 0.00 49 1018.0
20260507155245 60 291 5.2 11.3 0.00 0.00 0.00 48 1018.0
20260507154741 59 180 5.2 8.7 0.00 0.00 0.00 52 1018.1
20260507154239 59 324 5.2 6.1 0.00 0.00 0.00 48 1018.3
20260507153735 59 240 7.0 8.7 0.00 0.00 0.00 49 1018.1
20260507153232 61 253 6.1 11.3 0.00 0.00 0.00 47 1018.1
20260507152728 60 205 0.9 2.6 0.00 0.00 0.00 49 1018.3
20260507152225 60 199 0.9 6.1 0.00 0.00 0.00 51 1018.4
20260507151721 58 275 8.7 12.2 0.00 0.00 0.00 49 1018.5
20260507151218 59 261 4.3 7.0 0.00 0.00 0.00 50 1018.4
20260507150715 58 263 6.1 9.6 0.00 0.00 0.00 50 1018.6
20260507150211 58 275 6.1 12.2 0.00 0.00 0.00 52 1018.6
20260507145707 58 231 2.6 8.7 0.00 0.00 0.00 52 1018.4
20260507145204 58 286 3.5 7.8 0.00 0.00 0.00 53 1018.7
20260507144700 57 274 7.0 9.6 0.00 0.00 0.00 54 1018.6
20260507144159 57 342 3.5 9.6 0.00 0.00 0.00 56 1018.6
20260507143655 57 288 2.6 7.0 0.00 0.00 0.00 59 1018.4
20260507143152 57 257 5.2 6.1 0.00 0.00 0.00 61 1018.4
20260507142648 56 195 0.0 3.5 0.00 0.00 0.00 61 1018.8
20260507142144 56 203 0.9 5.2 0.00 0.00 0.00 62 1018.7
20260507141641 54 287 1.7 3.5 0.00 0.00 0.00 65 1018.6
20260507141138 54 216 1.7 6.1 0.00 0.00 0.00 64 1018.8
20260507140634 54 307 3.5 5.2 0.00 0.00 0.00 66 1018.8
20260507140132 53 319 2.6 6.1 0.00 0.00 0.00 67 1018.9
20260507135629 53 256 3.5 5.2 0.00 0.00 0.00 68 1018.9
20260507135126 53 252 2.6 5.2 0.00 0.00 0.00 69 1019.0
20260507134622 52 305 1.7 3.5 0.00 0.00 0.00 71 1018.9
20260507134119 52 260 2.6 5.2 0.00 0.00 0.00 71 1018.8
20260507133615 51 264 2.6 2.6 0.00 0.00 0.00 73 1018.9
20260507133112 51 262 2.6 2.6 0.00 0.00 0.00 73 1019.0
20260507132609 50 257 1.7 3.5 0.00 0.00 0.00 72 1018.9
20260507132105 50 215 0.9 1.7 0.00 0.00 0.00 74 1019.1
20260507131602 50 216 1.7 1.7 0.00 0.00 0.00 74 1018.8
20260507131100 49 204 0.9 1.7 0.00 0.00 0.00 74 1019.0
20260507130556 50 217 0.9 1.7 0.00 0.00 0.00 74 1019.0
20260507130054 49 184 0.0 0.9 0.00 0.00 0.00 76 1019.0
20260507125553 49 174 0.9 0.9 0.00 0.00 0.00 75 1019.0
20260507125050 49 169 0.9 0.9 0.00 0.00 0.00 76 1019.0
20260507124546 48 175 0.9 0.9 0.00 0.00 0.00 78 1019.0
20260507124044 47 174 0.0 1.7 0.00 0.00 0.00 79 1019.0
20260507123542 47 174 0.0 0.9 0.00 0.00 0.00 79 1018.9
20260507123038 45 240 0.9 2.6 0.00 0.00 0.00 82 1018.8
20260507122534 45 198 0.9 1.7 0.00 0.00 0.00 83 1018.9
20260507122030 45 205 0.0 2.6 0.00 0.00 0.00 83 1018.7
20260507121526 44 195 0.0 0.9 0.00 0.00 0.00 84 1018.7
20260507121021 44 204 0.9 0.9 0.00 0.00 0.00 84 1018.7
20260507120518 44 202 0.9 0.9 0.00 0.00 0.00 83 1018.4
20260507120015 44 210 0.9 0.9 0.00 0.00 0.00 83 1018.4
20260507115511 43 199 0.9 0.9 0.00 0.00 0.00 82 1018.6
20260507115007 43 209 0.9 1.7 0.00 0.00 0.00 82 1018.6
20260507114503 43 252 1.7 1.7 0.00 0.00 0.00 82 1018.4
20260507114001 43 246 0.9 1.7 0.00 0.00 0.00 82 1018.4
20260507113458 43 236 0.9 2.6 0.00 0.00 0.00 81 1018.4
20260507112955 43 258 1.7 1.7 0.00 0.00 0.00 81 1018.4
20260507112452 42 275 1.7 1.7 0.00 0.00 0.00 83 1018.4
20260507111949 42 272 1.7 2.6 0.00 0.00 0.00 84 1018.3
20260507111446 42 249 1.7 1.7 0.00 0.00 0.00 84 1018.4
20260507110942 42 259 0.9 1.7 0.00 0.00 0.00 84 1018.3
20260507110439 42 267 1.7 1.7 0.00 0.00 0.00 84 1018.3
20260507105935 42 285 0.9 1.7 0.00 0.00 0.00 84 1018.2
20260507105432 42 276 0.9 1.7 0.00 0.00 0.00 83 1018.5
20260507104929 42 282 0.9 1.7 0.00 0.00 0.00 83 1018.5
20260507104426 42 287 1.7 1.7 0.00 0.00 0.00 84 1018.3
20260507103926 42 268 0.9 1.7 0.00 0.00 0.00 82 1018.2
20260507103424 42 273 1.7 2.6 0.00 0.00 0.00 82 1018.3
20260507102919 42 278 1.7 2.6 0.00 0.00 0.00 82 1018.4
20260507102416 42 286 1.7 2.6 0.00 0.00 0.00 82 1018.5
20260507101913 43 261 0.9 1.7 0.00 0.00 0.00 81 1018.5
20260507101408 43 265 1.7 2.6 0.00 0.00 0.00 80 1018.7
20260507100905 43 287 1.7 3.5 0.00 0.00 0.00 79 1018.3
20260507100402 43 284 1.7 3.5 0.00 0.00 0.00 79 1018.4
20260507095901 43 295 2.6 5.2 0.00 0.00 0.00 78 1018.2
20260507095357 43 294 1.7 2.6 0.00 0.00 0.00 81 1018.3
20260507094854 43 288 1.7 2.6 0.00 0.00 0.00 81 1018.3
20260507094350 43 285 1.7 2.6 0.00 0.00 0.00 80 1018.4
20260507093848 43 283 1.7 2.6 0.00 0.00 0.00 80 1018.3
20260507093346 44 269 0.9 2.6 0.00 0.00 0.00 78 1018.4
20260507092844 44 275 2.6 2.6 0.00 0.00 0.00 79 1018.3
20260507092340 44 286 1.7 1.7 0.00 0.00 0.00 79 1018.1
20260507091836 44 291 1.7 2.6 0.00 0.00 0.00 81 1018.2
20260507091333 43 275 1.7 2.6 0.00 0.00 0.00 81 1018.4
20260507090828 43 282 1.7 1.7 0.00 0.00 0.00 79 1018.2
20260507090325 43 252 0.0 1.7 0.00 0.00 0.00 79 1018.1
20260507085822 44 253 0.9 1.7 0.00 0.00 0.00 77 1018.2
20260507085319 44 236 0.9 0.9 0.00 0.00 0.00 77 1018.2
20260507084816 44 235 0.0 0.9 0.00 0.00 0.00 77 1018.0
20260507084313 44 236 0.9 0.9 0.00 0.00 0.00 75 1018.2
20260507083810 44 252 1.7 1.7 0.00 0.00 0.00 74 1018.0
20260507083306 44 242 0.9 0.9 0.00 0.00 0.00 74 1018.1
20260507082802 42 197 0.0 0.0 0.00 0.00 0.00 79 1018.1
20260507082258 42 197 0.0 0.0 0.00 0.00 0.00 82 1018.2
20260507081755 42 198 0.0 0.0 0.00 0.00 0.00 79 1018.0
20260507081251 43 199 0.0 0.0 0.00 0.00 0.00 78 1018.1
20260507080748 43 200 0.0 0.9 0.00 0.00 0.00 78 1018.3
20260507080244 43 201 0.9 0.9 0.00 0.00 0.00 76 1018.2
20260507075740 43 201 0.0 0.0 0.00 0.00 0.00 76 1018.4
20260507075236 43 201 0.0 0.0 0.00 0.00 0.00 75 1018.5
20260507074732 43 202 0.0 0.0 0.00 0.00 0.00 75 1018.2
20260507074231 43 203 0.0 0.9 0.00 0.00 0.00 76 1018.3
20260507073727 43 204 0.0 0.0 0.00 0.00 0.00 79 1018.2
20260507073224 43 205 0.0 0.9 0.00 0.00 0.00 79 1018.3
20260507072722 43 205 0.9 0.9 0.00 0.00 0.00 81 1018.2
20260507072219 44 220 0.9 0.9 0.00 0.00 0.00 80 1018.5
20260507071717 43 286 0.9 0.9 0.00 0.00 0.00 80 1018.6
20260507071212 43 287 0.9 0.9 0.00 0.00 0.00 82 1018.6
20260507070710 43 288 0.9 0.9 0.00 0.00 0.00 82 1018.7
20260507070207 44 288 0.0 1.7 0.00 0.00 0.00 83 1018.7
20260507065703 44 278 1.7 1.7 0.00 0.00 0.00 78 1019.1
20260507065200 46 276 1.7 2.6 0.00 0.00 0.00 75 1019.0
20260507064657 45 280 1.7 3.5 0.00 0.00 0.00 75 1019.0
20260507064155 44 254 1.7 1.7 0.00 0.00 0.00 80 1018.9
20260507063653 44 247 0.9 0.9 0.00 0.00 0.00 82 1018.9
20260507063150 43 248 0.9 0.9 0.00 0.00 0.00 87 1019.0
20260507062646 44 248 0.0 0.9 0.00 0.00 0.00 86 1018.9
20260507062144 45 248 0.9 1.7 0.00 0.00 0.00 87 1019.0
20260507061642 44 229 0.9 1.7 0.00 0.00 0.00 88 1019.0
20260507061140 44 228 0.9 1.7 0.00 0.00 0.00 86 1019.0
20260507060638 45 218 0.0 0.9 0.00 0.00 0.00 87 1019.0
20260507060134 45 219 0.9 0.9 0.00 0.00 0.00 88 1019.0
20260507055630 45 219 0.9 0.9 0.00 0.00 0.00 84 1018.8
20260507055126 45 212 0.9 0.9 0.00 0.00 0.00 77 1018.9
20260507054622 45 211 0.0 0.9 0.00 0.00 0.00 79 1019.0
20260507054119 45 211 0.0 0.9 0.00 0.00 0.00 83 1018.9
20260507053617 45 208 0.0 0.9 0.00 0.00 0.00 81 1019.0
20260507053115 44 185 0.0 0.9 0.00 0.00 0.00 83 1019.1
20260507052613 44 185 0.9 0.9 0.00 0.00 0.00 80 1019.0
20260507052109 44 184 0.0 0.9 0.00 0.00 0.00 82 1018.8
20260507051606 44 184 0.9 0.9 0.00 0.00 0.00 83 1018.9
20260507051103 45 184 0.0 0.0 0.00 0.00 0.00 92 1018.9
20260507050559 45 184 0.0 0.9 0.00 0.00 0.00 91 1019.1
20260507050056 45 185 0.9 0.9 0.00 0.00 0.00 88 1019.1
20260507045553 45 184 0.0 0.9 0.00 0.04 0.04 87 1019.3
20260507045050 44 184 0.0 0.0 0.00 0.04 0.04 87 1018.9
20260507044547 45 184 0.0 0.0 0.00 0.04 0.04 85 1018.9
20260507044044 45 184 0.0 0.9 0.00 0.04 0.04 83 1018.9
20260507043539 46 184 0.9 0.9 0.00 0.04 0.04 80 1019.0
20260507043037 48 184 0.9 0.9 0.00 0.04 0.04 76 1019.0
20260507042533 49 185 0.9 1.7 0.00 0.04 0.04 63 1019.2
20260507042028 49 145 0.9 0.9 0.00 0.04 0.04 62 1018.8
20260507041526 47 143 0.0 0.0 0.00 0.04 0.04 62 1018.9
20260507041022 48 144 0.0 0.0 0.00 0.04 0.04 62 1019.0
20260507040519 49 144 0.0 0.0 0.00 0.04 0.04 59 1018.9
20260507040014 49 143 0.9 0.9 0.00 0.04 0.04 59 1018.8
20260507035511 48 136 0.0 0.0 0.00 0.04 0.04 60 1018.8
20260507035008 48 133 0.0 0.0 0.00 0.04 0.04 62 1018.9
20260507034505 47 133 0.0 0.0 0.00 0.04 0.04 63 1018.8
20260507034003 47 131 0.0 0.0 0.00 0.04 0.04 65 1019.0
20260507033500 48 131 0.0 0.0 0.00 0.04 0.04 61 1019.3
20260507032957 49 131 0.0 0.0 0.00 0.04 0.04 61 1019.0
20260507032454 50 125 0.0 0.9 0.00 0.04 0.04 57 1019.0
20260507031950 49 107 0.9 0.9 0.00 0.04 0.04 60 1018.8
20260507031446 47 108 0.0 0.0 0.00 0.04 0.04 62 1019.1
20260507030943 47 108 0.0 0.0 0.00 0.04 0.04 64 1019.0
20260507030441 49 108 0.0 0.0 0.00 0.04 0.04 62 1019.0
20260507025938 50 108 0.0 0.0 0.00 0.04 0.04 57 1018.9
20260507025435 51 107 0.9 0.9 0.00 0.04 0.04 51 1018.9
20260507024933 51 107 0.0 0.9 0.00 0.04 0.04 52 1018.9
20260507024430 51 107 0.0 0.0 0.00 0.04 0.04 52 1018.9
20260507023925 52 107 0.0 0.0 0.00 0.04 0.04 50 1018.8
20260507023423 52 107 0.9 0.9 0.00 0.04 0.04 50 1018.7
20260507022920 52 108 0.9 0.9 0.00 0.04 0.04 50 1018.7
20260507022417 52 105 0.9 0.9 0.00 0.04 0.04 50 1018.9
20260507021912 53 108 0.9 2.6 0.00 0.04 0.04 49 1018.6
20260507021408 53 126 1.7 2.6 0.00 0.04 0.04 49 1018.4
20260507020907 53 89 1.7 2.6 0.00 0.04 0.04 50 1018.4
20260507020403 52 109 1.7 1.7 0.00 0.04 0.04 51 1018.3
20260507015900 52 88 1.7 2.6 0.00 0.04 0.04 53 1018.5
20260507015358 53 92 0.9 1.7 0.00 0.04 0.04 51 1018.4
20260507014855 53 78 1.7 1.7 0.00 0.04 0.04 51 1018.3
20260507014351 53 105 0.9 1.7 0.00 0.04 0.04 50 1018.2
20260507013847 53 87 1.7 2.6 0.00 0.04 0.04 50 1018.1
20260507013344 53 116 1.7 2.6 0.00 0.04 0.04 50 1018.4
20260507012842 53 86 1.7 1.7 0.00 0.04 0.04 52 1018.3
20260507012337 53 82 1.7 2.6 0.00 0.04 0.04 52 1018.2
20260507011834 53 58 0.9 2.6 0.00 0.04 0.04 51 1018.2
20260507011331 53 87 0.9 1.7 0.00 0.04 0.04 51 1018.2
20260507010826 53 78 0.0 1.7 0.00 0.04 0.04 52 1018.0
20260507010322 53 88 0.0 2.6 0.00 0.04 0.04 51 1018.0
20260507005819 54 78 0.9 2.6 0.00 0.04 0.04 51 1018.0
20260507005316 54 79 0.9 3.5 0.00 0.04 0.04 50 1017.9
20260507004812 55 55 1.7 3.5 0.00 0.04 0.04 49 1017.9
20260507004310 55 59 2.6 5.2 0.00 0.04 0.04 47 1017.7
20260507003806 56 51 0.9 2.6 0.00 0.04 0.04 47 1017.5
20260507003256 56 106 2.6 5.2 0.00 0.04 0.04 47 1017.5
20260507002752 57 39 2.6 2.6 0.00 0.04 0.04 47 1017.6
20260507002248 57 60 0.9 3.5 0.00 0.04 0.04 47 1017.4
20260507001745 57 67 0.9 6.1 0.00 0.04 0.04 47 1017.5
20260507001242 57 32 4.3 6.1 0.00 0.04 0.04 44 1017.5
20260507000739 57 46 0.9 6.1 0.00 0.04 0.04 45 1017.4
20260507000234 58 51 0.9 7.8 0.00 0.04 0.04 45 1017.3
20260506235731 58 83 0.9 1.7 0.00 0.04 0.04 46 1017.3
20260506235227 58 47 4.3 6.1 0.00 0.04 0.04 43 1017.3
20260506234724 58 46 2.6 3.5 0.00 0.04 0.04 44 1017.3
20260506234221 58 13 3.5 6.1 0.00 0.04 0.04 43 1017.3
20260506233719 58 79 2.6 5.2 0.00 0.04 0.04 43 1017.5
20260506233215 58 64 2.6 6.1 0.00 0.04 0.04 44 1017.4
20260506232711 58 9 3.5 7.0 0.00 0.04 0.04 45 1017.3
20260506232206 58 28 1.7 7.0 0.00 0.04 0.04 44 1017.2
20260506231704 59 354 3.5 5.2 0.00 0.04 0.04 43 1017.3
20260506231203 59 6 2.6 7.0 0.00 0.04 0.04 43 1017.3
20260506230659 59 348 4.3 6.1 0.00 0.04 0.04 42 1017.3
20260506230156 59 65 0.9 3.5 0.00 0.04 0.04 42 1017.3
20260506225652 59 6 3.5 7.0 0.00 0.04 0.04 41 1017.5
20260506225149 59 0 3.5 5.2 0.00 0.04 0.04 42 1017.3
20260506224645 60 24 7.0 7.8 0.00 0.04 0.04 41 1017.5
20260506224142 59 41 0.9 5.2 0.00 0.04 0.04 42 1017.3
20260506223639 59 83 4.3 7.0 0.00 0.04 0.04 42 1017.4
20260506223134 60 17 3.5 6.1 0.00 0.04 0.04 40 1017.3
20260506222632 59 58 3.5 11.3 0.00 0.04 0.04 40 1017.4
20260506222128 60 86 3.5 7.0 0.00 0.04 0.04 43 1017.2
20260506221626 60 46 2.6 5.2 0.00 0.04 0.04 42 1017.3
20260506221124 59 103 3.5 5.2 0.00 0.04 0.04 40 1017.2
20260506220620 59 84 4.3 9.6 0.00 0.04 0.04 41 1017.3
20260506220115 60 38 5.2 9.6 0.00 0.04 0.04 40 1017.3
20260506215612 60 17 6.1 7.8 0.00 0.04 0.04 40 1017.4
20260506215107 60 81 8.7 12.2 0.00 0.04 0.04 38 1017.4
20260506214605 60 358 9.6 12.2 0.00 0.04 0.04 39 1017.4
20260506214102 60 13 3.5 7.8 0.00 0.04 0.04 42 1017.3
20260506213600 60 18 6.1 7.8 0.00 0.04 0.04 41 1017.3
20260506213057 60 302 1.7 6.1 0.00 0.04 0.04 42 1017.0
20260506212554 60 40 7.0 7.8 0.00 0.04 0.04 43 1017.1
20260506212049 60 39 6.1 9.6 0.00 0.04 0.04 43 1017.3
20260506211545 60 53 6.1 12.2 0.00 0.04 0.04 43 1017.2
20260506211042 60 34 1.7 7.0 0.00 0.04 0.04 46 1017.2
20260506210538 60 351 6.1 9.6 0.00 0.04 0.04 43 1017.3
20260506210035 60 61 2.6 6.1 0.00 0.04 0.04 46 1017.4
20260506205532 60 43 2.6 7.8 0.00 0.04 0.04 47 1017.4
20260506205027 60 18 1.7 2.6 0.00 0.04 0.04 45 1017.4
20260506204526 60 126 5.2 8.7 0.00 0.04 0.04 45 1017.6
20260506204022 60 20 4.3 8.7 0.00 0.04 0.04 43 1017.5
20260506203521 59 89 1.7 7.0 0.00 0.04 0.04 46 1017.9
20260506203017 60 5 5.2 9.6 0.00 0.04 0.04 46 1017.5
20260506202514 59 12 7.0 8.7 0.00 0.04 0.04 46 1017.6
20260506202010 59 36 3.5 5.2 0.00 0.04 0.04 49 1018.0
20260506201508 59 23 4.3 5.2 0.00 0.04 0.04 48 1017.9